Weather History for Fosston, MN

Change the Weather History Date:

Monday, September 24, 2012

  Actual Average Record
Temperature  
Mean Temperature 54 °F -  
Max Temperature 73 °F 61 °F 82 °F (1949)
Min Temperature 35 °F 38 °F 24 °F (1985)
Degree Days  
Heating Degree Days 11    
Growing Degree Days 4 (Base 50)    
Moisture  
Dew Point 29 °F    
Average Humidity 44    
Maximum Humidity 75    
Minimum Humidity 19    
Precipitation  
Precipitation 0.00 in - - ()
Sea Level Pressure  
Sea Level Pressure 29.83 in    
Wind  
Wind Speed 10 mph (West)    
Max Wind Speed 21 mph    
Max Gust Speed 28 mph    
Visibility 10 miles    
Events      
Averages and records for this station are not official NWS values.
T = Trace of Precipitation, MM = Missing Value Source: NWS Daily Summary

Daily Weather History Graph

Daily Weather History Graph

Search for Another Location

Airport:

Trip Planner

Search our weather history database for the weather conditions in past years. The results will help you decide how hot, cold, wet, or windy it might be!

Date:

Astronomy

Sep. 24, 2012 Rise Set
Actual Time 7:13 AM CDT 7:15 PM CDT
Civil Twilight 6:42 AM CDT 7:46 PM CDT
Nautical Twilight 6:06 AM CDT 8:22 PM CDT
Astronomical Twilight 5:29 AM CDT 8:59 PM CDT
Moon 4:20 PM CDT (9/24) 1:09 AM CDT (9/24)
Length of Visible Light 13h 03m
Length of Day
12h 02m
Waxing Gibbous, 71% of the Moon is Illuminated
Sep 24
Waxing Gibbous
Sep 29
Full
Oct 8
Last Quarter
Oct 15
New
Oct 21
First Quarter

Hourly Weather History & Observations

Time (CDT) Temp. Windchill Dew Point Humidity Pressure Visibility Wind Dir Wind Speed Gust Speed Precip Events Conditions
12:15 AM 39.2 °F 32.5 °F 21.2 °F 49% 30.02 in 10.0 mi SSW 10.4 mph - N/A   Clear
12:35 AM 39.2 °F 33.0 °F 21.2 °F 49% 30.02 in 10.0 mi SSW 9.2 mph - N/A   Clear
12:56 AM 39.2 °F 33.6 °F 21.2 °F 49% 30.01 in 10.0 mi SSW 8.1 mph - N/A   Clear
1:15 AM 37.4 °F 30.8 °F 21.2 °F 52% 30.00 in 10.0 mi SSW 9.2 mph - N/A   Clear
1:35 AM 37.4 °F 31.4 °F 23.0 °F 56% 30.00 in 10.0 mi SSW 8.1 mph - N/A   Clear
1:56 AM 37.4 °F 31.4 °F 23.0 °F 56% 30.00 in 10.0 mi SSW 8.1 mph - N/A   Clear
2:15 AM 37.4 °F 34.9 °F 24.8 °F 60% 29.99 in 10.0 mi SSW 3.5 mph - N/A   Clear
2:35 AM 37.4 °F 33.8 °F 23.0 °F 56% 29.98 in 10.0 mi SSW 4.6 mph - N/A   Clear
2:55 AM 37.4 °F 30.3 °F 24.8 °F 60% 29.97 in 10.0 mi SSW 10.4 mph - N/A   Clear
3:15 AM 37.4 °F 30.3 °F 24.8 °F 60% 29.96 in 10.0 mi SSW 10.4 mph - N/A   Clear
3:35 AM 37.4 °F 30.8 °F 24.8 °F 60% 29.95 in 10.0 mi SSW 9.2 mph - N/A   Clear
3:55 AM 37.4 °F 30.3 °F 24.8 °F 60% 29.94 in 10.0 mi SSW 10.4 mph - N/A   Clear
4:15 AM 35.6 °F - 24.8 °F 65% 29.93 in 10.0 mi Calm Calm - N/A   Clear
4:55 AM 37.4 °F 30.8 °F 24.8 °F 60% 29.91 in 10.0 mi SSW 9.2 mph - N/A   Clear
5:15 AM 35.6 °F 28.6 °F 24.8 °F 65% 29.90 in 10.0 mi SSW 9.2 mph - N/A   Clear
5:35 AM 37.4 °F 30.3 °F 24.8 °F 60% 29.89 in 10.0 mi SSW 10.4 mph - N/A   Clear
5:55 AM 37.4 °F 29.8 °F 24.8 °F 60% 29.88 in 10.0 mi SSW 11.5 mph - N/A   Clear
6:15 AM 37.4 °F 30.3 °F 24.8 °F 60% 29.87 in 10.0 mi SSW 10.4 mph - N/A   Clear
6:35 AM 37.4 °F 30.3 °F 24.8 °F 60% 29.86 in 10.0 mi SSW 10.4 mph - N/A   Clear
6:55 AM 37.4 °F 30.3 °F 24.8 °F 60% 29.86 in 10.0 mi SSW 10.4 mph - N/A   Clear
7:15 AM 37.4 °F 29.8 °F 24.8 °F 60% 29.84 in 10.0 mi SSW 11.5 mph - N/A   Clear
7:35 AM 37.4 °F 30.3 °F 24.8 °F 60% 29.84 in 10.0 mi SSW 10.4 mph - N/A   Clear
7:55 AM 39.2 °F - 24.8 °F 56% 29.83 in 10.0 mi Calm Calm - N/A   Clear
8:15 AM 42.8 °F 36.6 °F 26.6 °F 53% 29.82 in 10.0 mi SSW 11.5 mph - N/A   Clear
8:35 AM 44.6 °F 40.7 °F 28.4 °F 53% 29.82 in 10.0 mi SSW 6.9 mph - N/A   Clear
8:55 AM 48.2 °F - 30.2 °F 50% 29.81 in 10.0 mi SW 11.5 mph - N/A   Clear
9:15 AM 48.2 °F - 26.6 °F 43% 29.80 in 10.0 mi SW 4.6 mph - N/A   Clear
9:35 AM 51.8 °F - 26.6 °F 38% 29.79 in 10.0 mi SW 9.2 mph 17.3 mph N/A   Clear
9:55 AM 55.4 °F - 26.6 °F 33% 29.78 in 10.0 mi WSW 9.2 mph - N/A   Clear
10:15 AM 57.2 °F - 28.4 °F 33% 29.78 in 10.0 mi SW 11.5 mph 16.1 mph N/A   Clear
10:40 AM 60.8 °F - 28.4 °F 29% 29.77 in 10.0 mi WSW 13.8 mph 19.6 mph N/A   Clear
10:55 AM 62.6 °F - 30.2 °F 30% 29.77 in 10.0 mi West 12.7 mph 17.3 mph N/A   Clear
11:15 AM 64.4 °F - 30.2 °F 28% 29.76 in 10.0 mi West 13.8 mph 18.4 mph N/A   Clear
11:35 AM 64.4 °F - 30.2 °F 28% 29.76 in 10.0 mi West 12.7 mph 18.4 mph N/A   Clear
11:55 AM 66.2 °F - 30.2 °F 26% 29.76 in 10.0 mi West 13.8 mph 19.6 mph N/A   Clear
12:15 PM 69.8 °F - 32.0 °F 25% 29.75 in 10.0 mi West 11.5 mph 17.3 mph N/A   Clear
12:35 PM 69.8 °F - 32.0 °F 25% 29.75 in 10.0 mi WNW 9.2 mph 18.4 mph N/A   Clear
12:55 PM 71.6 °F - 33.8 °F 25% 29.75 in 10.0 mi NW 15.0 mph 20.7 mph N/A   Clear
1:15 PM 71.6 °F - 33.8 °F 25% 29.75 in 10.0 mi WNW 13.8 mph 20.7 mph N/A   Clear
1:35 PM 71.6 °F - 33.8 °F 25% 29.74 in 10.0 mi WNW 10.4 mph 20.7 mph N/A   Clear
1:55 PM 73.4 °F - 35.6 °F 25% 29.73 in 10.0 mi WNW 15.0 mph 21.9 mph N/A   Clear
2:15 PM 73.4 °F - 37.4 °F 27% 29.73 in 10.0 mi WNW 16.1 mph 21.9 mph N/A   Clear
2:35 PM 73.4 °F - 37.4 °F 27% 29.73 in 10.0 mi NW 19.6 mph 26.5 mph N/A   Clear
2:55 PM 73.4 °F - 39.2 °F 29% 29.73 in 10.0 mi NW 15.0 mph 26.5 mph N/A   Clear
3:15 PM 73.4 °F - 42.8 °F 33% 29.72 in 10.0 mi WNW 17.3 mph 25.3 mph N/A   Clear
3:35 PM 71.6 °F - 42.8 °F 35% 29.73 in 10.0 mi NW 20.7 mph 27.6 mph N/A   Clear
3:55 PM 71.6 °F - 41.0 °F 33% 29.73 in 10.0 mi NNW 20.7 mph 26.5 mph N/A   Clear
4:15 PM 71.6 °F - 39.2 °F 31% 29.73 in 10.0 mi NW 17.3 mph 24.2 mph N/A   Clear
4:35 PM 71.6 °F - 33.8 °F 25% 29.73 in 10.0 mi NW 16.1 mph 25.3 mph N/A   Clear
4:55 PM 71.6 °F - 33.8 °F 25% 29.74 in 10.0 mi NW 18.4 mph 24.2 mph N/A   Clear
5:15 PM 71.6 °F - 26.6 °F 19% 29.75 in 10.0 mi NW 13.8 mph 23.0 mph N/A   Clear
5:35 PM 69.8 °F - 26.6 °F 20% 29.75 in 10.0 mi NNW 13.8 mph 23.0 mph N/A   Clear
5:56 PM 68.0 °F - 26.6 °F 21% 29.76 in 10.0 mi North 15.0 mph - N/A   Clear
6:15 PM 66.2 °F - 26.6 °F 23% 29.77 in 10.0 mi NNW 17.3 mph - N/A   Clear
6:35 PM 62.6 °F - 23.0 °F 22% 29.78 in 10.0 mi North 13.8 mph - N/A   Clear
6:56 PM 60.8 °F - 23.0 °F 23% 29.79 in 10.0 mi NNW 9.2 mph - N/A   Clear
7:15 PM 55.4 °F - 24.8 °F 31% 29.79 in 10.0 mi NNW 11.5 mph - N/A   Clear
7:35 PM 53.6 °F - 28.4 °F 38% 29.80 in 10.0 mi Calm Calm - N/A   Clear
7:56 PM 50.0 °F - 30.2 °F 47% 29.81 in 10.0 mi Calm Calm - N/A   Clear
8:15 PM 51.8 °F - 32.0 °F 47% 29.81 in 10.0 mi North 15.0 mph - N/A   Clear
8:35 PM 50.0 °F - 32.0 °F 50% 29.82 in 10.0 mi NNW 8.1 mph - N/A   Clear
8:56 PM 48.2 °F - 32.0 °F 54% 29.83 in 10.0 mi NNW 10.4 mph - N/A   Clear
9:15 PM 46.4 °F 41.5 °F 33.8 °F 62% 29.84 in 10.0 mi NNW 10.4 mph - N/A   Clear
9:35 PM 46.4 °F - 33.8 °F 62% 29.84 in 10.0 mi Calm Calm - N/A   Clear
9:56 PM 44.6 °F 40.7 °F 33.8 °F 66% 29.85 in 10.0 mi North 6.9 mph - N/A   Clear
10:15 PM 44.6 °F - 32.0 °F 61% 29.86 in 10.0 mi Calm Calm - N/A   Clear
10:35 PM 42.8 °F - 30.2 °F 61% 29.87 in 10.0 mi Calm Calm - N/A   Clear
10:56 PM 41.0 °F 37.1 °F 30.2 °F 65% 29.87 in 10.0 mi NNE 5.8 mph - N/A   Clear
11:56 PM 37.4 °F - 30.2 °F 75% 29.88 in 10.0 mi Calm Calm - N/A   Clear